map of AER home
Great Circle Mapper logo
AER - Airport
Location
City:  Sochi, Krasnodar, Russian Federation (Russia)
ICAO / IATA:URSS / AER

Details
Type:Airport (Aerodrome, Airfield)
Use:Public/Civil
Latitude:4327'00"N (43.449928)
Longitude:3957'24"E (39.956589)
Datum:WGS 1984
Elevation:89 ft (27 m)
Runways:2
Longest:9482 × 164 ft (2890 × 50 m), paved

Time
Time Zone:UTC+3 (DST+4)

Weather
METAR:URSS 191300Z 14004G09MPS 7000 VCTS -SHRA OVC021CB 19/16 Q1016 WS ALL RWY NOSIG RMK R06/13006G10MPS MT OBSC QFE760 02290050 06290050
TAF:URSS 191038Z 1912/2012 15005G10MPS 9999 -SHRA BKN030CB OVC100 530002
TEMPO 1912/1924 VRB06G12MPS 2200 -TSRA BKN007 BKN030CB OVC100
TEMPO 2000/2012 VRB06G12MPS 1200 TSRA BKN005 BKN030CB OVC100

Related Locations
Nearby:
Farthest:NTAV: 11014 mi / 17726 km
Raivavae, Tubuai Islands, Austral Islands, PF

Find:

   beyond  
but within

Other Information
Maps:
NOTAMs:
Links:
Sources:

  
flag of Russian Federation (Russia)   

Sectional Chart

Flight Planning
at skyvector.com

Satellite Image

Google Maps Satellite View

 

Copyright © 2004-2014 Karl L. Swartz. All rights reserved.
The Great Circle Mapper name and logo are trademarks of the Great Circle Mapper.
All other trademarks mentioned herein belong to their respective owners.
Please see credits for attibutions and further copyright information.

  Follow gcmap on Facebook Follow gcmap on Twitter

hCard Microformat

Geo Microformat